Miscellaneous Local Product
Issued by NWS North Platte, NE

Home | Current Version | Previous Version | Graphics & Text | Print | Product List | Glossary On
Versions: 1 2 3 4 5 6 7 8 9 10 11 12 13 14 15 16 17 18 19 20 21 22 23 24 25 26 27 28 29 30 31 32 33 34 35 36 37 38 39 40 41 42 43 44 45 46 47 48 49 50
125
AXUS43 KLBF 210510
MISLBF


WESTERN AND NORTH CENTRAL NEBRASKA HOURLY WEATHER ROUNDUP
NATIONAL WEATHER SERVICE NORTH PLATTE NE
1200 AM CDT TUE MAR 21 2017

NOTE: "FAIR" INDICATES FEW OR NO CLOUDS BELOW 12,000 FEET WITH NO
SIGNIFICANT WEATHER AND/OR OBSTRUCTIONS TO VISIBILITY.

NOTE: STATIONS NOT REPORTING VARIABLES SUCH AS SKY/WEATHER OR
PRESSURE ARE PROVIDED BY RAWS AND APRS NETWORKS AND ARE NOT UNDER
NATIONAL WEATHER SERVICE QUALITY CONTROL.

...OBSERVATIONS IN AND NEAR THE EASTERN PANHANDLE OF NEBRASKA...

CITY           SKY/WX    TMP DP  RH WIND       PRES   REMARKS
PINE RIDGE     CLOUDY    46  27  47 E9        30.22R
CHADRON        CLOUDY    46  26  45 CALM      30.23R
ALLIANCE       CLOUDY    40  31  70 NE8       30.17R WCI  34
SIDNEY         CLOUDY    48  26  42 SE12      30.15S
CRESCENT LAKE    N/A     47  23  39 E12G21      N/A
$$

...OBSERVATIONS IN NORTHERN NEBRASKA AND FAR SOUTHERN SOUTH DAKOTA...

CITY           SKY/WX    TMP DP  RH WIND       PRES   REMARKS
WINNER         CLOUDY    46  25  43 E9        30.28S
VALENTINE      MOCLDY    46  30  53 NE10      30.25F
THEDFORD       MOCLDY    48  32  54 E13       30.22F
AINSWORTH      MOCLDY    45  35  68 E12       30.24F
O`NEILL        MOCLDY    45  35  67 CALM      30.30R
ORD            CLOUDY    47  31  53 N6        30.26R
BROKEN BOW     MOCLDY    49  29  46 NE15      30.22F
VALENTINE NWR    N/A     46  29  52 E6          N/A
HALSEY           N/A     47  28  47 E6          N/A
BUTTE            N/A     44  26  48 NE7         N/A
CHAMBERS         N/A     47  31  54 CALM        N/A
EWING            N/A     46  34  62 CALM        N/A
$$

...OBSERVATIONS IN SOUTHWEST NEBRASKA AND FAR NORTHEAST COLORADO...

CITY           SKY/WX    TMP DP  RH WIND       PRES   REMARKS
WRAY           FAIR      54  30  40 E14G21    30.16R
HOLYOKE        FAIR      54  32  43 E9G17     30.17R
IMPERIAL       CLOUDY    52  27  38 E17       30.15F
OGALLALA       CLOUDY    52  26  36 E17       30.16F
NORTH PLATTE   CLOUDY    50  27  40 NE15      30.20F
MCCOOK         CLOUDY    52  30  43 E10       30.17S
LEXINGTON      CLOUDY    47  27  45 NE10      30.21S
STAPLETON        N/A     46  30  53 E3          N/A
GOTHENBURG       N/A     51  25  36 NE9         N/A
CALLAWAY         N/A     48  29  48 NE12        N/A
$$

...OBSERVATIONS IN CENTRAL LINCOLN COUNTY AREA...

CITY           SKY/WX    TMP DP  RH WIND       PRES   REMARKS
N.P. AIRPORT   CLOUDY    50  27  40 NE15      30.20F
N.P. DOWNTOWN    N/A     49  29  46 E10G18      N/A
N.P. SOUTHEAST   N/A     49  29  45 NE8         N/A
N.P. HILLCREST   N/A     49  30  47 E20G26      N/A
$$

...SOME OBSERVATIONS FROM AROUND THE REGION...

CITY           SKY/WX    TMP DP  RH WIND       PRES   REMARKS
DENVER         CLOUDY    53  31  42 E13       30.12R
LIMON          CLOUDY    51  35  54 E16       30.16R
ASPEN          CLOUDY    43  26  51 SW10      30.25S
LARAMIE        CLOUDY    42  35  76 NE8       30.24R
GILLETTE       MIX PCPN  35  34  96 NE8       30.24R WCI  29
CHEYENNE       CLOUDY    50  32  50 N6G25     30.22R
SCOTTSBLUFF    CLOUDY    47  29  49 E9        30.16R
GRAND ISLAND   CLOUDY    44  32  62 NE9       30.23R
OMAHA          MOCLDY    51  34  52 NE9       30.21R
SIOUX FALLS    CLOUDY    40  28  62 CALM      30.28S
PIERRE         CLOUDY    43  30  60 NE13      30.31R
RAPID CITY     LGT RAIN  40  37  89 NE18      30.25S WCI  31
BISMARCK       CLEAR     31  24  75 N7        30.40R WCI  24
KANSAS CITY    CLEAR     57  43  59 NE15      30.08S
HILL CITY      PTCLDY    53  32  44 NE15      30.14R
WICHITA        PTCLDY    66  46  48 NE15      29.99R
DODGE CITY     CLOUDY    54  43  66 NE10      30.03S
OKLAHOMA CITY  PTCLDY    73  43  33 SE14      29.93F
DALLAS         PTCLDY    75  56  51 S17G25    29.98S
AMARILLO       CLEAR     59  23  25 NE10      30.02R
$$




USA.gov is the U.S. government's official web portal to all federal, state and local government web resources and services.